Cape Girardeau, MO

9:19 AM CST on December 09, 2019 (GMT -0600)
Cape Girardeau Regional

Weather History for KCGI - October, 2019

Change the Weather History Date:

Sunday, October 20, 2019

  Actual Average Record
Temperature  
Mean Temperature 60 °F 56 °F  
Max Temperature 72 °F 69 °F 89 °F (1963)
Min Temperature 47 °F 44 °F 30 °F (1960)
Degree Days  
Heating Degree Days 5 9  
Month to date heating degree days 122 138  
Since 1 July heating degree days 122 187  
Cooling Degree Days 0 1  
Month to date cooling degree days 51 27  
Year to date cooling degree days 1775 1449  
Growing Degree Days 11 (Base 50)    
Moisture  
Dew Point 53 °F    
Average Humidity 71    
Maximum Humidity 93    
Minimum Humidity 49    
Precipitation  
Precipitation 0.00 in 0.13 in 3.16 in (1984)
Month to date precipitation 1.77 2.38  
Year to date precipitation 49.44 36.71  
Sea Level Pressure  
Sea Level Pressure 29.86 in    
Wind  
Wind Speed 5 mph (ENE)    
Max Wind Speed 14 mph    
Max Gust Speed 20 mph    
Visibility 9 miles    
Events      
T = Trace of Precipitation, MM = Missing Value Source: NWS Daily Summary

Daily Weather History Graph

Daily Weather History Graph

Search for Another Location

Airport or City:

Astronomy

Oct. 20, 2019 Rise Set
Actual Time 7:10 AM CDT 6:14 PM CDT
Civil Twilight 6:44 AM CDT 6:41 PM CDT
Nautical Twilight 6:13 AM CDT 7:11 PM CDT
Astronomical Twilight 5:43 AM CDT 7:41 PM CDT
Moon 11:29 PM CDT (10/20) 1:33 PM CDT (10/20)
Length of Visible Light 11h 57m
Length of Day
11h 04m
Waning Gibbous, 59% of the Moon is Illuminated
Oct 20
Waning Gibbous
Oct 21
Last Quarter
Oct 27
New
Nov 4
First Quarter
Nov 12
Full

Hourly Weather History & Observations

Time (CDT) Temp. Dew Point Humidity Pressure Visibility Wind Dir Wind Speed Gust Speed Precip Events Conditions
12:53 AM 53.1 °F 48.9 °F 86% 29.81 in 10.0 mi Calm Calm - N/A   Overcast
1:53 AM 50.0 °F 48.0 °F 93% 29.81 in 10.0 mi Calm Calm - N/A   Clear
2:53 AM 50.0 °F 46.9 °F 89% 29.82 in 10.0 mi Calm Calm - N/A   Scattered Clouds
3:53 AM 50.0 °F 46.9 °F 89% 29.84 in 10.0 mi Calm Calm - N/A   Mostly Cloudy
4:53 AM 52.0 °F 48.9 °F 89% 29.85 in 10.0 mi Calm Calm - N/A   Overcast
5:53 AM 53.1 °F 50.0 °F 89% 29.86 in 10.0 mi North 3.5 mph - N/A   Overcast
6:53 AM 55.9 °F 53.1 °F 90% 29.87 in 7.0 mi NE 4.6 mph - N/A   Overcast
7:53 AM 57.0 °F 53.1 °F 87% 29.89 in 6.0 mi NNE 4.6 mph - N/A   Overcast
8:53 AM 57.9 °F 54.0 °F 87% 29.91 in 7.0 mi ENE 5.8 mph - N/A   Overcast
9:53 AM 59.0 °F 53.1 °F 81% 29.94 in 9.0 mi North 6.9 mph - N/A   Overcast
10:12 AM 60.1 °F 53.1 °F 78% 29.94 in 9.0 mi Variable 5.8 mph - N/A   Overcast
10:53 AM 61.0 °F 54.0 °F 78% 29.94 in 10.0 mi North 5.8 mph - N/A   Overcast
11:29 AM 62.1 °F 54.0 °F 75% 29.93 in 8.0 mi East 5.8 mph - N/A   Overcast
11:53 AM 63.0 °F 54.0 °F 72% 29.92 in 10.0 mi Calm Calm - N/A   Overcast
12:53 PM 66.0 °F 55.0 °F 68% 29.90 in 10.0 mi Variable 3.5 mph - N/A   Overcast
1:53 PM 69.1 °F 55.0 °F 61% 29.87 in 10.0 mi SE 4.6 mph - N/A   Clear
2:53 PM 70.0 °F 53.1 °F 55% 29.85 in 10.0 mi East 5.8 mph - N/A   Mostly Cloudy
3:53 PM 71.1 °F 52.0 °F 51% 29.85 in 10.0 mi SE 8.1 mph - N/A   Mostly Cloudy
4:53 PM 72.0 °F 54.0 °F 53% 29.83 in 10.0 mi East 6.9 mph - N/A   Mostly Cloudy
6:53 PM 63.0 °F 54.0 °F 72% 29.82 in 10.0 mi Calm Calm - N/A   Clear
7:53 PM 61.0 °F 55.0 °F 81% 29.83 in 10.0 mi ENE 3.5 mph - N/A   Mostly Cloudy
8:53 PM 60.1 °F 55.0 °F 83% 29.83 in 10.0 mi ENE 4.6 mph - N/A   Scattered Clouds
9:53 PM 61.0 °F 55.9 °F 83% 29.83 in 10.0 mi East 5.8 mph - N/A   Overcast
11:53 PM 64.9 °F 57.0 °F 75% 29.75 in 10.0 mi SSE 11.5 mph 20.7 mph N/A   Clear